BTK6330 WATO-WADD

Flight info

Callsign BTK6330
Flight time N/A
Altitude 32000
Route TOGEM W42 PEBGU
Aircraft A320/M-SDE3FGHIRWY/LB1

Departure

Time 2026-04-29 10:44
Airport Komodo Airport (WATO)

Arrival

Time N/A
Airport Denpasar I Gusti Ngurah Rai International Airport (WADD)
Time Latitude Longitude Altitude Speed Heading
2026-04-29 10:26 -8.48863 119.88800 232 ft 0 kts 263°
2026-04-29 10:35 -8.48862 119.88810 230 ft 2 kts 263°
2026-04-29 10:36 -8.48858 119.88827 230 ft 2 kts 215°
2026-04-29 10:36 -8.48843 119.88831 233 ft 2 kts 144°
2026-04-29 10:36 -8.48839 119.88828 234 ft 0 kts 135°
2026-04-29 10:38 -8.48827 119.88817 234 ft 1 kts 135°
2026-04-29 10:41 -8.48831 119.88821 233 ft 3 kts 135°
2026-04-29 10:41 -8.48851 119.88839 234 ft 4 kts 144°
2026-04-29 10:41 -8.48877 119.88847 234 ft 7 kts 166°
2026-04-29 10:41 -8.48937 119.88857 234 ft 10 kts 172°
2026-04-29 10:42 -8.49015 119.88868 233 ft 13 kts 172°
2026-04-29 10:42 -8.49112 119.88881 233 ft 16 kts 173°
2026-04-29 10:42 -8.49226 119.88898 233 ft 14 kts 149°
2026-04-29 10:42 -8.49225 119.88997 238 ft 17 kts 49°
2026-04-29 10:43 -8.49130 119.88989 234 ft 15 kts 354°
2026-04-29 10:43 -8.48881 119.88960 238 ft 71 kts 353°
2026-04-29 10:43 -8.48165 119.88867 236 ft 133 kts 353°
2026-04-29 10:43 -8.47104 119.88729 383 ft 167 kts 352°
2026-04-29 10:44 -8.45921 119.88610 974 ft 171 kts 360°
2026-04-29 10:44 -8.44739 119.88659 1658 ft 170 kts
2026-04-29 10:44 -8.43551 119.88580 2214 ft 179 kts 340°
2026-04-29 10:44 -8.42531 119.87760 2506 ft 203 kts 301°
2026-04-29 10:45 -8.41869 119.86402 2808 ft 228 kts 295°
2026-04-29 10:45 -8.41173 119.84872 3218 ft 252 kts 295°
2026-04-29 10:45 -8.40412 119.83194 3757 ft 270 kts 295°
2026-04-29 10:45 -8.39621 119.81454 4571 ft 276 kts 295°
2026-04-29 10:46 -8.38810 119.79679 5430 ft 280 kts 295°
2026-04-29 10:46 -8.37996 119.77878 6282 ft 284 kts 292°
2026-04-29 10:46 -8.37526 119.75935 7058 ft 288 kts 274°
2026-04-29 10:46 -8.37652 119.73909 7851 ft 292 kts 256°
2026-04-29 10:47 -8.38375 119.71995 8653 ft 294 kts 240°
2026-04-29 10:47 -8.39386 119.70189 9466 ft 297 kts 240°
2026-04-29 10:47 -8.40410 119.68356 10200 ft 302 kts 240°
2026-04-29 10:47 -8.41474 119.66443 10455 ft 325 kts 240°
2026-04-29 10:48 -8.42621 119.64377 10664 ft 347 kts 240°
2026-04-29 10:48 -8.43815 119.62226 11156 ft 356 kts 240°
2026-04-29 10:48 -8.45036 119.60032 11797 ft 360 kts 240°
2026-04-29 10:48 -8.46267 119.57815 12441 ft 364 kts 240°
2026-04-29 10:49 -8.47512 119.55570 13075 ft 368 kts 240°
2026-04-29 10:49 -8.48769 119.53302 13696 ft 372 kts 239°
2026-04-29 10:49 -8.50043 119.51009 14235 ft 376 kts 239°
2026-04-29 10:49 -8.51331 119.48699 14785 ft 380 kts 239°
2026-04-29 10:50 -8.52636 119.46362 15319 ft 383 kts 239°
2026-04-29 10:50 -8.53953 119.44008 15843 ft 387 kts 239°
2026-04-29 10:50 -8.55242 119.41605 16359 ft 391 kts 244°
2026-04-29 10:50 -8.56140 119.39000 16854 ft 396 kts 256°
2026-04-29 10:51 -8.56521 119.36228 17354 ft 401 kts 268°
2026-04-29 10:51 -8.56441 119.33403 17847 ft 404 kts 272°
2026-04-29 10:51 -8.56304 119.30554 18323 ft 408 kts 272°
2026-04-29 10:51 -8.56169 119.27720 18751 ft 411 kts 272°
2026-04-29 10:52 -8.56034 119.24835 19185 ft 413 kts 272°
2026-04-29 10:52 -8.55897 119.21884 19626 ft 416 kts 272°
2026-04-29 10:52 -8.55764 119.19000 20050 ft 418 kts 272°
2026-04-29 10:52 -8.55628 119.16054 20478 ft 421 kts 272°
2026-04-29 10:53 -8.55492 119.13091 20909 ft 423 kts 272°
2026-04-29 10:53 -8.55353 119.10111 21333 ft 426 kts 272°
2026-04-29 10:53 -8.55216 119.07120 21747 ft 428 kts 272°
2026-04-29 10:53 -8.55075 119.04104 22157 ft 431 kts 272°
2026-04-29 10:54 -8.54931 119.01072 22566 ft 433 kts 272°
2026-04-29 10:54 -8.54832 118.99009 22840 ft 435 kts 272°
2026-04-29 10:54 -8.54687 118.95989 23237 ft 438 kts 272°
2026-04-29 10:54 -8.54539 118.92912 23610 ft 440 kts 272°
2026-04-29 10:55 -8.54393 118.89819 23949 ft 442 kts 272°
2026-04-29 10:55 -8.54247 118.86708 24285 ft 444 kts 272°
2026-04-29 10:55 -8.54101 118.83584 24613 ft 446 kts 272°
2026-04-29 10:55 -8.53953 118.80451 24941 ft 448 kts 272°
2026-04-29 10:56 -8.53803 118.77293 25271 ft 450 kts 272°
2026-04-29 10:56 -8.53655 118.74132 25591 ft 452 kts 272°
2026-04-29 10:56 -8.53504 118.70947 25916 ft 454 kts 272°
2026-04-29 10:56 -8.53349 118.67756 26214 ft 456 kts 272°
2026-04-29 10:57 -8.53199 118.64544 26522 ft 458 kts 272°
2026-04-29 10:57 -8.53053 118.61322 26840 ft 460 kts 272°
2026-04-29 10:57 -8.52910 118.58087 27149 ft 462 kts 272°
2026-04-29 10:57 -8.52768 118.54837 27453 ft 464 kts 272°
2026-04-29 10:58 -8.52624 118.51576 27763 ft 466 kts 272°
2026-04-29 10:58 -8.52475 118.48299 28061 ft 468 kts 272°
2026-04-29 10:58 -8.52321 118.45006 28349 ft 470 kts 272°
2026-04-29 10:58 -8.52168 118.41703 28634 ft 472 kts 272°
2026-04-29 10:59 -8.52017 118.38382 28908 ft 474 kts 272°
2026-04-29 10:59 -8.51867 118.35047 29188 ft 475 kts 272°
2026-04-29 10:59 -8.51717 118.31713 29470 ft 477 kts 272°
2026-04-29 10:59 -8.51567 118.28364 29737 ft 478 kts 272°
2026-04-29 11:00 -8.51419 118.25039 29991 ft 480 kts 272°
2026-04-29 11:00 -8.51267 118.21667 30217 ft 482 kts 272°
2026-04-29 11:00 -8.51110 118.18282 30442 ft 483 kts 272°
2026-04-29 11:00 -8.50949 118.14892 30716 ft 483 kts 272°
2026-04-29 11:01 -8.50789 118.11519 31056 ft 481 kts 272°
2026-04-29 11:01 -8.50631 118.08147 31393 ft 479 kts 272°
2026-04-29 11:01 -8.50476 118.04792 31735 ft 477 kts 272°
2026-04-29 11:01 -8.50320 118.01452 31891 ft 475 kts 273°
2026-04-29 11:02 -8.50164 117.98144 31929 ft 468 kts 273°
2026-04-29 11:02 -8.49855 117.91561 31926 ft 465 kts 273°
2026-04-29 11:03 -8.49547 117.85095 31926 ft 464 kts 273°
2026-04-29 11:03 -8.49232 117.78538 31925 ft 464 kts 273°
2026-04-29 11:04 -8.48924 117.72029 31924 ft 464 kts 273°
2026-04-29 11:04 -8.48627 117.65566 31913 ft 463 kts 272°
2026-04-29 11:05 -8.48326 117.59072 31914 ft 463 kts 273°
2026-04-29 11:05 -8.48011 117.52570 31909 ft 463 kts 273°
2026-04-29 11:06 -8.47690 117.46069 31904 ft 463 kts 273°
2026-04-29 11:06 -8.47804 117.39585 31892 ft 463 kts 261°
2026-04-29 11:07 -8.49410 117.33286 31907 ft 463 kts 254°
2026-04-29 11:07 -8.51145 117.27018 31900 ft 464 kts 254°
2026-04-29 11:08 -8.52883 117.20737 31904 ft 464 kts 254°
2026-04-29 11:08 -8.54614 117.14457 31903 ft 464 kts 254°
2026-04-29 11:09 -8.56278 117.08153 31901 ft 465 kts 259°
2026-04-29 11:09 -8.56709 117.04915 31745 ft 466 kts 264°
2026-04-29 11:09 -8.57063 117.01658 31509 ft 467 kts 264°
2026-04-29 11:09 -8.57407 116.98391 31273 ft 468 kts 264°
2026-04-29 11:10 -8.57747 116.95121 31038 ft 468 kts 264°
2026-04-29 11:10 -8.58086 116.91853 30808 ft 469 kts 264°
2026-04-29 11:10 -8.58431 116.88569 30574 ft 470 kts 264°
2026-04-29 11:10 -8.58779 116.85279 30348 ft 470 kts 264°
2026-04-29 11:11 -8.59127 116.82002 30123 ft 469 kts 264°
2026-04-29 11:11 -8.59475 116.78730 29815 ft 467 kts 264°
2026-04-29 11:11 -8.59821 116.75480 29107 ft 464 kts 264°
2026-04-29 11:11 -8.60163 116.72255 28452 ft 460 kts 264°
2026-04-29 11:12 -8.60500 116.69055 27805 ft 456 kts 263°
2026-04-29 11:12 -8.60831 116.65923 27167 ft 453 kts 263°
2026-04-29 11:12 -8.61170 116.62727 26525 ft 450 kts 263°
2026-04-29 11:12 -8.61497 116.59636 25903 ft 447 kts 263°
2026-04-29 11:13 -8.61824 116.56517 25272 ft 445 kts 263°
2026-04-29 11:13 -8.62147 116.53421 24657 ft 442 kts 263°
2026-04-29 11:13 -8.62468 116.50339 24056 ft 440 kts 263°
2026-04-29 11:13 -8.62789 116.47275 23458 ft 437 kts 263°
2026-04-29 11:14 -8.63107 116.44232 22840 ft 433 kts 263°
2026-04-29 11:14 -8.63421 116.41227 22303 ft 427 kts 263°
2026-04-29 11:14 -8.63731 116.38265 21799 ft 422 kts 263°
2026-04-29 11:14 -8.64039 116.35333 21292 ft 417 kts 264°
2026-04-29 11:15 -8.64344 116.32432 20795 ft 413 kts 264°
2026-04-29 11:15 -8.64648 116.29560 20296 ft 410 kts 264°
2026-04-29 11:15 -8.64949 116.26707 19787 ft 407 kts 264°
2026-04-29 11:15 -8.65246 116.23870 19268 ft 405 kts 264°
2026-04-29 11:16 -8.65541 116.21042 18747 ft 404 kts 264°
2026-04-29 11:16 -8.65833 116.18222 18220 ft 404 kts 265°
2026-04-29 11:16 -8.66126 116.15402 17630 ft 403 kts 265°
2026-04-29 11:16 -8.66417 116.12595 17088 ft 401 kts 265°
2026-04-29 11:17 -8.66705 116.09799 16545 ft 399 kts 264°
2026-04-29 11:17 -8.66992 116.07017 16012 ft 397 kts 264°
2026-04-29 11:17 -8.67280 116.04243 15474 ft 396 kts 264°
2026-04-29 11:17 -8.67568 116.01478 14940 ft 395 kts 264°
2026-04-29 11:18 -8.67850 115.98759 14410 ft 394 kts 264°
2026-04-29 11:18 -8.68136 115.96012 13872 ft 393 kts 264°
2026-04-29 11:18 -8.68421 115.93271 13297 ft 391 kts 264°
2026-04-29 11:18 -8.68704 115.90553 12758 ft 388 kts 264°
2026-04-29 11:19 -8.68984 115.87861 12255 ft 383 kts 264°
2026-04-29 11:19 -8.69259 115.85191 11748 ft 379 kts 264°
2026-04-29 11:19 -8.69532 115.82539 11172 ft 377 kts 264°
2026-04-29 11:19 -8.69804 115.79919 10598 ft 375 kts 264°
2026-04-29 11:20 -8.70070 115.77340 10418 ft 361 kts 264°
2026-04-29 11:20 -8.70326 115.74868 10296 ft 346 kts 264°
2026-04-29 11:20 -8.70571 115.72493 10182 ft 333 kts 264°
2026-04-29 11:20 -8.70805 115.70221 10036 ft 316 kts 264°
2026-04-29 11:21 -8.71029 115.68056 9575 ft 306 kts 264°
2026-04-29 11:21 -8.71248 115.65929 8991 ft 301 kts 264°
2026-04-29 11:21 -8.71460 115.63841 8433 ft 297 kts 264°
2026-04-29 11:21 -8.71671 115.61766 7902 ft 297 kts 264°
2026-04-29 11:22 -8.71882 115.59694 7363 ft 295 kts 264°
2026-04-29 11:22 -8.72092 115.57641 6835 ft 293 kts 264°
2026-04-29 11:22 -8.72304 115.55577 6324 ft 297 kts 264°
2026-04-29 11:22 -8.72516 115.53523 6022 ft 291 kts 264°
2026-04-29 11:23 -8.72724 115.51496 5585 ft 289 kts 264°
2026-04-29 11:23 -8.72930 115.49484 4984 ft 287 kts 264°
2026-04-29 11:23 -8.73135 115.47482 4378 ft 285 kts 264°
2026-04-29 11:23 -8.73341 115.45483 3785 ft 284 kts 263°
2026-04-29 11:24 -8.73676 115.43605 3696 ft 259 kts 261°
2026-04-29 11:24 -8.73859 115.41866 3617 ft 241 kts 267°
2026-04-29 11:24 -8.73925 115.40207 3519 ft 233 kts 268°
2026-04-29 11:24 -8.73983 115.38570 3419 ft 235 kts 268°
2026-04-29 11:25 -8.74046 115.36944 3322 ft 227 kts 268°
2026-04-29 11:25 -8.74108 115.35379 3188 ft 221 kts 268°
2026-04-29 11:25 -8.74169 115.33839 2942 ft 219 kts 267°
2026-04-29 11:25 -8.74229 115.32315 2672 ft 221 kts 267°
2026-04-29 11:26 -8.74349 115.29267 2116 ft 210 kts 267°
2026-04-29 11:26 -8.74406 115.27820 1868 ft 199 kts 267°
2026-04-29 11:26 -8.74459 115.26482 1606 ft 188 kts 266°
2026-04-29 11:27 -8.74510 115.25179 1381 ft 176 kts 266°
2026-04-29 11:27 -8.74556 115.24007 1157 ft 164 kts 266°
2026-04-29 11:27 -8.74601 115.22856 952 ft 161 kts 266°
2026-04-29 11:27 -8.74645 115.21757 749 ft 159 kts 265°
2026-04-29 11:28 -8.74689 115.20639 567 ft 158 kts 266°
2026-04-29 11:28 -8.74736 115.19477 381 ft 177 kts 266°
2026-04-29 11:28 -8.74787 115.18286 114 ft 164 kts 265°
2026-04-29 11:28 -8.74822 115.17214 36 ft 139 kts 265°
2026-04-29 11:29 -8.74919 115.16350 35 ft 122 kts 265°
2026-04-29 11:29 -8.74969 115.15427 31 ft 130 kts 297°
2026-04-29 11:29 -8.74857 115.14457 577 ft 139 kts 275°